Location: Boiro
(42.6475°N, 8.8834°W)
Time: 11:48:44
(UTC+02:00)

deb Agena D - Pass Details

Date: 12 July 2022
Orbit: 997 x 1025 km, 100.1° (Epoch: 16 August)

Event Time Altitude Azimuth Distance (km) Brightness Sun altitude
Exits shadow 00:22:04 16° 103° (ESE) 2,394 ? -17.8°
Maximum altitude 00:25:35 26° 60° (ENE) 1,902 ? -18.2°
Drops below altitude 10° 00:30:39 10° 7° (N) 2,825 ? -18.7°
Sets 00:33:33 0° 355° (N) 3,778 ? -19.0°
